Current Version              Previous Version:    01  02  03  04  05  06  07  08  09  10  11  12  13  14  15  16  17  18  19  20  21  22  23  24  25  26  27  28  29  30  
   31  32  33  34  35  36  37  38  39  40  41  42  43  44  45  46  47  48  49  50  51  52  53  54  55  56  57  58  59  60  

[Printable]
853
ASUS44 KFWD 251715
RWRTX
NORTH TEXAS HOURLY WEATHER ROUNDUP
NATIONAL WEATHER SERVICE FORT WORTH TX
1200 PM CDT SAT OCT 25 2014

NOTE: "FAIR" INDICATES FEW OR NO CLOUDS BELOW 12,000 FEET WITH NO
SIGNIFICANT WEATHER AND/OR OBSTRUCTIONS TO VISIBILITY.

TXZ118-119-251800-
DALLAS/FORT WORTH METROPLEX

CITY           SKY/WX    TMP DP  RH WIND       PRES   REMARKS
DFW AIRPORT    SUNNY     79  61  53 SW10      30.14S
DALLAS LOVE    SUNNY     80  60  50 SW6       30.14F
FTW MEACHAM    SUNNY     79  61  53 VRB6      30.14S
DAL-EXECUTIVE  SUNNY     82  60  47 MISG      30.14F
FTW-ALLIANCE   SUNNY     81  61  50 SW7       30.14S
FTW-NAS-JRB    SUNNY     86  59  39 W7        30.18F
FTW-SPINKS     SUNNY     81  61  50 SW7       30.17S
ARLINGTON      SUNNY     80  59  48 S8        30.15S
GRAND PRAIRIE  SUNNY     79  63  57 MISG        N/A
ADDISON        SUNNY     81  59  47 S7        30.14F
MESQUITE       SUNNY     81  61  50 S8        30.15F
LANCASTER      SUNNY     81  59  47 S7        30.16F
$$

TXZ091>094-102>105-117-120-121-131>134-251800-
NORTH CENTRAL TEXAS

CITY           SKY/WX    TMP DP  RH WIND       PRES   REMARKS
SHRMAN/DENISON SUNNY     79  64  59 W6        30.14F
GAINESVILLE    SUNNY     80  61  52 W5        30.15S
BOWIE          SUNNY     81  59  47 W10G16    30.14S
BRIDGEPORT     SUNNY     82  61  50 W3        30.15F
DECATUR        SUNNY     79  58  49 W7        30.14F
DENTON         SUNNY     80  61  52 VRB6      30.13F
MCKINNEY       SUNNY     79  60  52 VRB3      30.14S
ROCKWALL       SUNNY     80  62  54 SW13      30.14S
TERRELL        SUNNY     81  61  50 S12       30.15F
WAXAHACHIE     SUNNY     81  61  51 SW8       30.17S
CLEBURNE       SUNNY     79  63  57 VRB7      30.17F
GRANBURY       SUNNY     82  60  47 SW6       30.16F
$$

TXZ083>090-098>101-113>116-127>130-139>142-154-155-251800-
WESTERN NORTH TEXAS

CITY           SKY/WX    TMP DP  RH WIND       PRES   REMARKS
WICHITA FALLS  SUNNY     82  58  43 W13       30.12S
WF-KICKAPOO    SUNNY     82  58  44 W12G21    30.14S
VERNON         SUNNY     84  52  32 SW5       30.13S
ABILENE        SUNNY     83  57  41 SW12      30.18S
ABILENE-DYESS  SUNNY     83  57  40 VRB7      30.16F
BRECKENRIDGE   SUNNY     83  58  43 SW6       30.15F HAZE
GRAHAM         SUNNY     82  60  46 W7        30.13S
MINERAL WELLS  SUNNY     81  60  48 SW7       30.14S
STEPHENVILLE   SUNNY     80  60  49 SW12      30.20S
COMANCHE       SUNNY     80  61  51 W10G18    30.18S
BROWNWOOD      SUNNY     79  59  50 W8        30.18F
COLEMAN        SUNNY     81  60  49 SW12      30.19F
BRADY          SUNNY     81  57  44 SW10      30.19F
$$

TXZ143>147-156>162-174-175-251800-
CENTRAL TEXAS

CITY           SKY/WX    TMP DP  RH WIND       PRES   REMARKS
WACO           SUNNY     80  60  50 SW9       30.17F
WACO-TSTC      SUNNY     81  61  50 S8        30.17F
WACO-MCGREGOR  SUNNY     81  59  47 SW9       30.18F
HILLSBORO      SUNNY     80  59  48 S10       30.17S
CORSICANA      SUNNY     81  58  45 SW14      30.17F
MEXIA          SUNNY     79  60  53 S12       30.17F
HEARNE         SUNNY     81  60  49 SW7       30.19F
CAMERON        SUNNY     81  60  49 S5        30.18F
TEMPLE         SUNNY     79  59  50 S10G16    30.17F
KILLEEN        SUNNY     79  61  53 W5        30.18F
KILLEEN-SKYLRK SUNNY     79  59  50 S5        30.17F
FORT HOOD      SUNNY     82  61  48 S5        30.18F
GATESVILLE     SUNNY     81  61  50 SW6       30.19F
HAMILTON       SUNNY     82  58  43 SW9       30.19S
LAMPASAS       SUNNY     80  64  58 SW6       30.18S
$$

TXZ095>097-106>112-122>126-135>138-148>153-164>167-251800-
EAST TEXAS

CITY           SKY/WX    TMP DP  RH WIND       PRES   REMARKS
PARIS          SUNNY     79  59  50 SW9       30.15S
SULPHUR SPRNGS SUNNY     81  59  47 SW16      30.17S
MOUNT PLEASANT SUNNY     79  59  50 SW10      30.17F
MINEOLA        SUNNY     79  61  53 S7        30.17F
TYLER          SUNNY     79  59  50 SW9       30.17F
LONGVIEW       SUNNY     78  61  55 MISG      30.16F
MARSHALL       SUNNY     79  61  55 W6        30.18F
ATHENS         SUNNY     77  59  53 S6        30.16F
PALESTINE      SUNNY     78  62  58 SW8       30.19F
JACKSONVILLE   SUNNY     77  59  54 W8        30.20F
HENDERSON      SUNNY     77  60  56 W7        30.18F
NACOGDOCHES    SUNNY     75  59  57 W6        30.19F
LUFKIN         SUNNY     79  59  50 VRB3      30.18F
$$

SUPPLEMENTAL OBSERVATIONS (CENTRAL)

CITY           SKY/WX    TMP DP  RH WIND       PRES   REMARKS
LAKE TEXOMA      N/A     79  59  50 W7          N/A
CADDO GRASSLND   N/A     82  63  51 SW6         N/A
PAT MAYSE LAKE   N/A     75  61  60 S7          N/A
GREENVILLE       N/A     82  59  44 SW10G20     N/A
ATHENS           N/A     81  59  47 SW5G14      N/A
LAKE LIMESTONE   N/A     81  59  47 SW9         N/A
MCGREGOR         N/A     82  61  47 SW7         N/A
$$

SUPPLEMENTAL OBSERVATIONS (WEST)

CITY           SKY/WX    TMP DP  RH WIND       PRES   REMARKS
MILLERS CREEK    N/A     82  68  61 SW12        N/A
LBJ GRASSLAND    N/A     82  63  51 W5          N/A
COMANCHE         N/A    N/A N/A N/A W13         N/A
HAMBY            N/A     82  57  42 SW9         N/A
COLORADO BEND    N/A     81  59  47 SW10        N/A
$$

SUPPLEMENTAL OBSERVATIONS (EAST)

CITY           SKY/WX    TMP DP  RH WIND       PRES   REMARKS
CLARKSVILLE      N/A     82  59  44 SW5G13      N/A
CADDO LAKE       N/A     82  61  47 W3          N/A
GILMER           N/A     79  59  50 SW8         N/A
HENDERSON        N/A     79  61  53 SW7         N/A
LUFKIN           N/A     79  59  50 MISG        N/A
N SABINE NF      N/A     79  59  50 MISG        N/A
S SABINE NF      N/A     81  57  44 NW3         N/A
$$

SUPPLEMENTAL OBSERVATIONS ARE A COLLECTION OF AUTOMATED INSTRUMENTS
THAT ARE MAINTAINED BY A VARIETY OF FEDERAL AND STATE AGENCIES.
CERTAIN ELEMENTS...SUCH AS HUMIDITY VALUES AND SUSTAINED WIND
SPEEDS...MAY BE APPROXIMATED.